RADIO ROSTO (RS-15) (23439 NORAD) Tracking and Keplerian Element Data

This shows tracking and keplerian element data for the satellite.

Feedback or suggestion? Click here.




ElementValue
Catalog23439
NameRADIO ROSTO (RS-15)
Epoch Orbit6366
Epoch Day297.90033048
Epoch Year2020
RAAN38.5256
Inclination64.8193
Eccentricity0.0152339
Argument of Perigee18.1757
Mean Anonmoly342.4531
Mean Motion11.27569008
Decay Rate-5.4E-07
L11 23439U 94085A 20297.90033048 -.00000054 00000-0 -33151-3 0 9991
L22 23439 64.8193 38.5256 0152339 18.1757 342.4531 11.27569008 63667

Live tracking and technical data element details for RADIO ROSTO (RS-15) (NORAD 23439). RADIO ROSTO (RS-15) can be tracked NOW for your location showing map with azimuth and elevation plus other details from your city location.

Track the satellite on the map from your city or location and see movement details for azimuth, elevation, latitude, longitude, range, height, and movement on the map or in text.







IsCatalogInMostPopularTable: catalog: 23439, numindb: 330
Update: records affected: 1



GetName: 23439 RADIO ROSTO (RS-15)

Hit Count: updated at: Sun, 25 Oct 2020 07:34:38 GMT